Hourly Data Report for January 02, 2018

All times are specified in Local Standard Time (LST). Add 1 hour to adjust for Daylight Saving Time where and when it is observed.

TORONTO INTL A
ONTARIO

43°40'36.000" N
79°37'50.000" W
173.40 m
6158731
71624
YYZ

Download Data

Hourly Data (January 2018)
Hourly Data Report for January 2, 2018
Temp Definition
°C
Dew Point Temp Definition
°C
Rel Hum Definition
%
Wind Dir Definition
10's deg

Wind Spd Definition
km/h
Visibility Definition
km
Stn Press Definition
kPa
Hmdx Definition


Wind Chill Definition


Weather Definition


TIME
00:00 Legend Double Dagger -11.7 -16.9 66 25 10 19.3 100.73   -17 Snow
01:00 Legend Double Dagger -11.3 -16.0 68 23 14 24.1 100.68   -18 Cloudy
02:00 Legend Double Dagger -11.6 -15.6 73 23 11 9.7 100.66   -18 Snow
03:00 Legend Double Dagger -11.2 -14.4 78 25 10 4.8 100.66   -17 Snow
04:00 Legend Double Dagger -11.3 -14.2 79 22 11 8.1 100.61   -17 Snow
05:00 Legend Double Dagger -10.1 -12.9 80 24 22 8.1 100.57   -18 Snow
06:00 Legend Double Dagger -9.7 -13.0 77 25 36 4.8 100.54   -20 Snow,Blowing Snow
07:00 Legend Double Dagger -10.5 -13.9 76 25 31 12.9 100.52   -20 Snow,Blowing Snow
08:00 Legend Double Dagger -10.9 -14.4 76 25 37 9.7 100.49   -22 Snow,Blowing Snow
09:00 Legend Double Dagger -11.8 -15.4 75 24 28 9.7 100.45   -22 Snow,Blowing Snow
10:00 Legend Double Dagger -11.3 -15.2 73 22 22 16.1 100.37   -20 Snow,Blowing Snow
11:00 Legend Double Dagger -10.4 -14.7 71 24 27 19.3 100.32   -20 LegendNANA
12:00 Legend Double Dagger -9.7 -14.3 70 25 29 19.3 100.23   -19 Blowing Snow
13:00 Legend Double Dagger -8.7 -13.5 69 25 37 19.3 100.11   -19 Blowing Snow
14:00 Legend Double Dagger -8.2 -13.2 67 25 36 19.3 100.04   -18 Blowing Snow
15:00 Legend Double Dagger -8.2 -13.1 68 25 39 19.3 100.01   -18 Blowing Snow
16:00 Legend Double Dagger -8.4 -13.3 68 24 34 16.1 100.05   -18 Snow Showers,Blowing Snow
17:00 Legend Double Dagger -9.1 -14.1 67 22 26 24.1 100.05   -18 LegendNANA
18:00 Legend Double Dagger -10.7 -15.3 70 24 22 24.1 100.11   -19 LegendNANA
19:00 Legend Double Dagger -10.9 -15.4 70 24 18 24.1 100.09   -19 Mostly Cloudy
20:00 Legend Double Dagger -11.2 -15.9 68 24 23 24.1 100.03   -20 LegendNANA
21:00 Legend Double Dagger -12.0 -16.9 67 24 15 24.1 99.95   -19 LegendNANA
22:00 Legend Double Dagger -12.1 -17.0 67 24 26 24.1 99.88   -22 Blowing Snow
23:00 Legend Double Dagger -12.3 -17.2 67 25 39 16.1 99.85   -24 Blowing Snow

Notes on Data Quality.

Legend

  • E = Estimated
  • M = Missing
  • NA = Not Available
  • ‡ = Partner data that is not subject to review by the National Climate Archives
Date modified: